Overview Statistics Trail Chart Weather Telemetry Raw packets
 

This is the latest recevied weather packets stored in our database for station/object WA6OOO. If no packets are shown the sender has not sent any weather packets the latest 10 day(s).

<< 64 65 66 67 68 69 70 >>
Time Temp. Humidity Pressure Rain* Wind** Luminosity Snow
1788225761 21.11° C 75% 1016.2 hPa 0 mm - 63 W/m² -
1788225457 21.11° C 75% 1016.5 hPa 0 mm - 70 W/m² -
1788225152 21.11° C 74% 1016.2 hPa 0 mm - 79 W/m² -
1788224846 21.11° C 74% 1016.2 hPa 0 mm - 88 W/m² -
1788224541 21.67° C 74% 1016.2 hPa 0 mm - 96 W/m² -
1788224240 21.11° C 73% 1016.4 hPa 0 mm - 106 W/m² -
1788223935 21.11° C 75% 1016.1 hPa 0 mm - 118 W/m² -
1788223635 21.11° C 74% 1016.3 hPa 0 mm - 129 W/m² -
1788223330 21.67° C 73% 1016.5 hPa 0 mm - 141 W/m² -
1788223039 22.22° C 72% 1016.3 hPa 0 mm - 148 W/m² -
1788222724 21.67° C 73% 1016.1 hPa 0 mm - 158 W/m² -
1788222423 22.22° C 73% 1016.2 hPa 0 mm - 182 W/m² -
1788222125 22.78° C 72% 1016.4 hPa 0 mm - 198 W/m² -
1788221813 22.78° C 72% 1016.2 hPa 0 mm - 212 W/m² -
1788221508 22.78° C 72% 1016.3 hPa 0 mm - 227 W/m² -
1788221204 22.78° C 72% 1016.2 hPa 0 mm - 241 W/m² -
1788220900 22.78° C 72% 1016.3 hPa 0 mm - 255 W/m² -
1788220598 22.78° C 72% 1016.2 hPa 0 mm - 267 W/m² -
1788220294 22.22° C 73% 1016.4 hPa 0 mm - 281 W/m² -
1788219993 22.78° C 72% 1016.3 hPa 0 mm - 296 W/m² -
1788219689 23.33° C 70% 1016.3 hPa 0 mm - 310 W/m² -
1788219384 22.78° C 71% 1016.4 hPa 0 mm - 324 W/m² -
1788219080 23.33° C 70% 1016.4 hPa 0 mm - 338 W/m² -
1788218775 23.33° C 70% 1016.4 hPa 0 mm - 354 W/m² -
1788218470 23.89° C 69% 1016.3 hPa 0 mm - 368 W/m² -

* Rain latest hour (hover to see other rain measurements)
** Current wind speed in m/s (hover to see current wind gust speed)